XBFGP MMTO-MMJC

Flight info

Callsign XBFGP
Flight time 0h 8m
Altitude 13500
Route MMTO DCT MMJC
Aircraft TBM9/L-V/N

Departure

Time 2026-05-05 05:00
Airport Adolfo López Mateos International Airport (MMTO)

Arrival

Time 2026-05-05 05:08
Airport Jorge Jiménez Cantú National Airport (MMJC)
Time Latitude Longitude Altitude Speed Heading
2026-05-05 04:56 19.32616 -99.56627 8463 ft 0 kts 342°
2026-05-05 04:58 19.32593 -99.56624 8468 ft 0 kts 67°
2026-05-05 04:58 19.32637 -99.56511 8468 ft 30 kts 67°
2026-05-05 04:58 19.32712 -99.56355 8465 ft 8 kts 354°
2026-05-05 04:58 19.32884 -99.56425 8468 ft 35 kts 347°
2026-05-05 04:59 19.32989 -99.56328 8466 ft 33 kts 51°
2026-05-05 04:59 19.33310 -99.56423 8465 ft 79 kts 336°
2026-05-05 04:59 19.33998 -99.56737 8461 ft 134 kts 338°
2026-05-05 04:59 19.34937 -99.57175 8759 ft 156 kts 334°
2026-05-05 05:00 19.36046 -99.57303 9210 ft 173 kts 18°
2026-05-05 05:00 19.36924 -99.56453 9810 ft 177 kts 67°
2026-05-05 05:00 19.37056 -99.55183 10476 ft 174 kts 94°
2026-05-05 05:00 19.37083 -99.53912 11026 ft 172 kts 83°
2026-05-05 05:01 19.37374 -99.52694 11597 ft 170 kts 69°
2026-05-05 05:01 19.37979 -99.51642 12175 ft 167 kts 50°
2026-05-05 05:01 19.38756 -99.50729 12676 ft 169 kts 47°
2026-05-05 05:01 19.39565 -99.49792 13166 ft 174 kts 47°
2026-05-05 05:02 19.40405 -99.48814 13479 ft 191 kts 47°
2026-05-05 05:02 19.41368 -99.47683 13466 ft 221 kts 48°
2026-05-05 05:02 19.42460 -99.46399 13434 ft 245 kts 48°
2026-05-05 05:02 19.43628 -99.45031 13397 ft 262 kts 48°
2026-05-05 05:03 19.44882 -99.43569 13361 ft 274 kts 47°
2026-05-05 05:03 19.46185 -99.42049 13325 ft 281 kts 48°
2026-05-05 05:03 19.47514 -99.40498 13281 ft 287 kts 47°
2026-05-05 05:03 19.48864 -99.38923 13242 ft 289 kts 47°
2026-05-05 05:04 19.50229 -99.37334 13195 ft 291 kts 47°
2026-05-05 05:04 19.51595 -99.35740 13150 ft 293 kts 47°
2026-05-05 05:04 19.52967 -99.34133 13109 ft 294 kts 47°
2026-05-05 05:04 19.54329 -99.32546 13119 ft 295 kts 47°
2026-05-05 05:05 19.55707 -99.30940 13131 ft 293 kts 47°
2026-05-05 05:05 19.57324 -99.30410 13054 ft 244 kts 326°
2026-05-05 05:05 19.57638 -99.31982 12587 ft 220 kts 257°
2026-05-05 05:05 19.56369 -99.32353 11198 ft 267 kts 128°
2026-05-05 05:06 19.56251 -99.30409 9161 ft 301 kts 82°
2026-05-05 05:06 19.57721 -99.28981 8581 ft 287 kts 46°
2026-05-05 05:06 19.59134 -99.28149 8694 ft 214 kts 337°
2026-05-05 05:06 19.59682 -99.29334 8696 ft 170 kts 262°
2026-05-05 05:07 19.59327 -99.30457 8710 ft 165 kts 226°
2026-05-05 05:07 19.58309 -99.30886 9015 ft 150 kts 186°
2026-05-05 05:07 19.57203 -99.30939 8858 ft 164 kts 172°
2026-05-05 05:07 19.56624 -99.30097 8641 ft 141 kts 78°
2026-05-05 05:08 19.57124 -99.29315 8358 ft 119 kts 50°
2026-05-05 05:08 19.57494 -99.28884 8318 ft 15 kts 43°
2026-05-05 05:08 19.57493 -99.28903 8318 ft 15 kts 225°
2026-05-05 05:08 19.57385 -99.29030 8328 ft 25 kts 261°
2026-05-05 05:09 19.57323 -99.29162 8337 ft 3 kts 316°